Terug naar catalogus

TIANMU-1 16

ActiefWeerSSO
NORAD 58701·PAYLOAD·🇨🇳 China

Gelanceerd Jan 5, 2024 vanaf Jiuquan Satellite Launch Center

Loading…

Volgende Passages (komende 24 uur)

TLE

VersSource: Space-Track

Epoch: Sep 14, 2026, 23:38 UTC

1 58701U 24004B   26257.98537788  .00004743  00000-0  17871-3 0  9993
2 58701  97.4622  83.3992 0006894  45.7798 314.4006 15.27553859149488

Volg TIANMU-1 16 in realtime met AllMySat

Download on the App Store